Regional Weather Roundup
Issued by NWS

Home | Current Version | Previous Version | Text Only | Print | Product List | Glossary On
Versions: 1 2 3 4 5 6 7 8 9 10 11 12 13 14 15 16 17 18 19 20 21 22 23 24 25 26 27 28 29 30 31 32 33 34 35 36 37 38 39 40 41 42 43 44 45 46 47 48 49 50
000
ASUS43 KLMK 241410
RWRKY
KENTUCKY REGIONAL WEATHER ROUNDUP
NATIONAL WEATHER SERVICE LOUISVILLE KY
1000 AM EDT MON JUL 24 2017

NOTE "FAIR" INDICATES FEW OR NO CLOUDS BELOW 12,000 FEET
WITH NO SIGNIFICANT WEATHER AND/OR OBSTRUCTIONS TO VISIBILITY.

KYZ001>023-026-027-061>063-070>075-241500-
WESTERN AND SOUTH CENTRAL KENTUCKY

CITY           SKY/WX    TMP DP  RH WIND       PRES   REMARKS
PADUCAH        PTSUNNY   77  72  84 SW3       29.94R
HENDERSON      CLOUDY    79  74  84 CALM      29.94S
OWENSBORO      CLOUDY    78  74  87 SW7       29.94S
HOPKINSVILLE   MOSUNNY   79  72  81 W6        29.96R
BOWLING GREEN  CLOUDY    79  73  82 CALM      29.96R
GLASGOW        CLOUDY    74  73  95 CALM      29.97S FOG
$$

KYZ024-025-028>034-038-045-046-053-241500-
NORTH CENTRAL KENTUCKY

CITY           SKY/WX    TMP DP  RH WIND       PRES   REMARKS
LOUISVILLE/SDF CLOUDY    83  72  69 W8        29.92S
LOUISVILLE/LOU MOSUNNY   82  74  76 W5        29.93S
FORT KNOX      CLOUDY    80  72  75 W7        29.93S
$$

KYZ035>037-039>044-047>052-055>060-089>105-241500-
NORTHEAST KENTUCKY

CITY           SKY/WX    TMP DP  RH WIND       PRES   REMARKS
LEXINGTON      MOSUNNY   79  70  74 W6        29.95R
COVINGTON      MOSUNNY   77  71  82 W7        29.93R
FRANKFORT      CLOUDY    80  71  74 W6        29.93S
$$

KYZ054-064>069-076>088-106>120-241500-
SOUTHEAST KENTUCKY

CITY           SKY/WX    TMP DP  RH WIND       PRES   REMARKS
JACKSON        CLOUDY    77  71  82 CALM      29.97S
LONDON         CLOUDY    75  69  81 SW5       29.99S
SOMERSET       MOSUNNY   73  70  88 W3        29.99R
MIDDLESBORO    CLOUDY    71  70  97 CALM      30.01S
MONTICELLO     PTSUNNY   76  71  85 NW9       30.00S
$$




USA.gov is the U.S. government's official web portal to all federal, state and local government web resources and services.